HFM4A EDDL-EGLL

Flight info

Callsign HFM4A
Flight time N/A
Altitude 18000
Route NETEX4Z/05R NETEX Z282 DIBIR L179 ROMIN/N0413F320 L179 SASKI L608 LOGAN
Aircraft A343/H-SDE2E3FGHIJ4J5M1RWXY/LB1D1

Departure

Time N/A
Airport Düsseldorf Airport (EDDL)

Arrival

Time 2026-05-05 20:53
Airport London Heathrow Airport (EGLL)
Time Latitude Longitude Altitude Speed Heading
2026-05-05 20:22 51.68791 0.72184 13338 ft 343 kts 264°
2026-05-05 20:22 51.68668 0.70461 13160 ft 343 kts 264°
2026-05-05 20:22 51.68397 0.66620 12729 ft 346 kts 265°
2026-05-05 20:23 51.68123 0.62783 12296 ft 343 kts 264°
2026-05-05 20:23 51.67853 0.59019 12103 ft 334 kts 264°
2026-05-05 20:23 51.67587 0.55362 11934 ft 323 kts 265°
2026-05-05 20:23 51.67328 0.51815 11767 ft 314 kts 264°
2026-05-05 20:24 51.67075 0.48358 11592 ft 306 kts 264°
2026-05-05 20:24 51.66834 0.44993 11396 ft 300 kts 265°
2026-05-05 20:24 51.66589 0.41688 11143 ft 296 kts 265°
2026-05-05 20:24 51.66346 0.38405 10859 ft 293 kts 265°
2026-05-05 20:25 51.66107 0.35199 10569 ft 292 kts 265°
2026-05-05 20:25 51.65863 0.31922 10273 ft 290 kts 265°
2026-05-05 20:25 51.65622 0.28706 10049 ft 286 kts 265°
2026-05-05 20:25 51.65390 0.25619 9944 ft 278 kts 265°
2026-05-05 20:26 51.65160 0.22573 9837 ft 270 kts 265°
2026-05-05 20:26 51.64937 0.19617 9729 ft 262 kts 265°
2026-05-05 20:26 51.64740 0.16747 9640 ft 255 kts 266°
2026-05-05 20:26 51.64545 0.13922 9556 ft 253 kts 266°
2026-05-05 20:27 51.64350 0.11121 9473 ft 252 kts 266°
2026-05-05 20:27 51.64155 0.08316 9399 ft 252 kts 266°
2026-05-05 20:27 51.63960 0.05516 9315 ft 252 kts 266°
2026-05-05 20:27 51.63764 0.02715 9256 ft 251 kts 266°
2026-05-05 20:28 51.63568 -0.00079 9163 ft 251 kts 266°
2026-05-05 20:28 51.63374 -0.02875 9134 ft 250 kts 266°
2026-05-05 20:28 51.63248 -0.04670 9084 ft 249 kts 266°
2026-05-05 20:28 51.63063 -0.07433 9001 ft 248 kts 266°
2026-05-05 20:29 51.62873 -0.10176 8778 ft 246 kts 266°
2026-05-05 20:29 51.62683 -0.12915 8522 ft 246 kts 266°
2026-05-05 20:29 51.62433 -0.16500 8186 ft 246 kts 266°
2026-05-05 20:29 51.62303 -0.18377 8011 ft 245 kts 266°
2026-05-05 20:30 51.62115 -0.21102 7760 ft 245 kts 266°
2026-05-05 20:30 51.61926 -0.23819 7523 ft 244 kts 266°
2026-05-05 20:30 51.61741 -0.26531 7251 ft 243 kts 266°
2026-05-05 20:30 51.61560 -0.29232 7013 ft 243 kts 266°
2026-05-05 20:31 51.61376 -0.31927 6692 ft 242 kts 265°
2026-05-05 20:31 51.61192 -0.34614 6450 ft 241 kts 265°
2026-05-05 20:31 51.61049 -0.37302 6183 ft 240 kts 270°
2026-05-05 20:31 51.60994 -0.39986 5917 ft 240 kts 271°
2026-05-05 20:32 51.60955 -0.42666 5642 ft 240 kts 271°
2026-05-05 20:32 51.60912 -0.45331 5374 ft 239 kts 271°
2026-05-05 20:32 51.60876 -0.48020 5087 ft 239 kts 271°
2026-05-05 20:32 51.60834 -0.50687 4814 ft 239 kts 271°
2026-05-05 20:33 51.60799 -0.53358 4546 ft 239 kts 270°
2026-05-05 20:33 51.60762 -0.55989 4274 ft 238 kts 271°
2026-05-05 20:33 51.60722 -0.58685 3954 ft 238 kts 271°
2026-05-05 20:33 51.60685 -0.61354 3648 ft 239 kts 271°
2026-05-05 20:34 51.60653 -0.63990 3355 ft 240 kts 271°
2026-05-05 20:34 51.60620 -0.66681 3075 ft 240 kts 270°
2026-05-05 20:34 51.60594 -0.69336 2911 ft 237 kts 271°
2026-05-05 20:34 51.60564 -0.71991 2751 ft 237 kts 270°
2026-05-05 20:35 51.60538 -0.74650 2526 ft 237 kts 270°
2026-05-05 20:35 51.60253 -0.77253 2489 ft 239 kts 246°
2026-05-05 20:35 51.59230 -0.79294 2496 ft 237 kts 213°
2026-05-05 20:35 51.57721 -0.80228 2499 ft 232 kts 187°
2026-05-05 20:36 51.56112 -0.80484 2492 ft 233 kts 181°
2026-05-05 20:36 51.54495 -0.80609 2493 ft 233 kts 180°
2026-05-05 20:36 51.52884 -0.80596 2486 ft 231 kts 169°
2026-05-05 20:36 51.51372 -0.79785 2495 ft 228 kts 153°
2026-05-05 20:37 51.50010 -0.78505 2495 ft 227 kts 137°
2026-05-05 20:37 51.48876 -0.76755 2494 ft 225 kts 131°
2026-05-05 20:37 51.47953 -0.74758 2490 ft 221 kts 110°
2026-05-05 20:37 51.47624 -0.72399 2494 ft 219 kts 90°
2026-05-05 20:38 51.47672 -0.69944 2499 ft 220 kts 86°
2026-05-05 20:38 51.47702 -0.67492 2456 ft 218 kts 89°
2026-05-05 20:38 51.47693 -0.65126 2199 ft 206 kts 89°
2026-05-05 20:38 51.47692 -0.62913 1949 ft 190 kts 88°
2026-05-05 20:39 51.47703 -0.60874 1676 ft 175 kts 89°
2026-05-05 20:39 51.47709 -0.59070 1457 ft 157 kts 89°
2026-05-05 20:39 51.47715 -0.57407 1236 ft 142 kts 89°
2026-05-05 20:39 51.47720 -0.55896 1046 ft 130 kts 89°
2026-05-05 20:40 51.47726 -0.54474 856 ft 126 kts 88°
2026-05-05 20:40 51.47732 -0.53055 689 ft 128 kts 87°
2026-05-05 20:40 51.47737 -0.51627 514 ft 128 kts 86°
2026-05-05 20:40 51.47742 -0.50193 336 ft 128 kts 86°
2026-05-05 20:41 51.47750 -0.48789 279 ft 125 kts 85°
2026-05-05 20:41 51.47784 -0.47177 666 ft 163 kts 86°
2026-05-05 20:41 51.47851 -0.45178 1255 ft 197 kts 86°
2026-05-05 20:41 51.47920 -0.42845 1938 ft 216 kts 88°
2026-05-05 20:42 51.47938 -0.40443 2607 ft 211 kts 88°
2026-05-05 20:42 51.47960 -0.38102 2942 ft 209 kts 85°
2026-05-05 20:42 51.48370 -0.35902 2997 ft 207 kts 55°
2026-05-05 20:42 51.49471 -0.34472 3004 ft 209 kts 21°
2026-05-05 20:43 51.50954 -0.34089 3018 ft 228 kts
2026-05-05 20:43 51.52564 -0.34546 3010 ft 244 kts 336°
2026-05-05 20:43 51.53882 -0.36278 3007 ft 249 kts 309°
2026-05-05 20:43 51.54820 -0.38628 3000 ft 251 kts 302°
2026-05-05 20:44 51.55680 -0.41084 2999 ft 252 kts 301°
2026-05-05 20:44 51.56527 -0.43546 3002 ft 252 kts 301°
2026-05-05 20:44 51.57374 -0.46015 2997 ft 252 kts 301°
2026-05-05 20:44 51.58218 -0.48493 3001 ft 253 kts 301°
2026-05-05 20:45 51.59902 -0.53482 2998 ft 254 kts 300°
2026-05-05 20:45 51.60427 -0.56160 3003 ft 257 kts 278°
2026-05-05 20:45 51.60500 -0.59079 2996 ft 258 kts 271°
2026-05-05 20:46 51.60483 -0.61938 3000 ft 259 kts 271°
2026-05-05 20:46 51.60458 -0.64830 2999 ft 258 kts 271°
2026-05-05 20:46 51.60433 -0.67725 2996 ft 258 kts 270°
2026-05-05 20:46 51.60399 -0.70608 2995 ft 258 kts 268°
2026-05-05 20:47 51.59930 -0.73380 2994 ft 260 kts 240°
2026-05-05 20:47 51.58709 -0.75467 2988 ft 258 kts 211°
2026-05-05 20:47 51.57108 -0.76778 2999 ft 258 kts 202°
2026-05-05 20:47 51.55422 -0.77729 2969 ft 257 kts 188°
2026-05-05 20:48 51.53654 -0.77562 2633 ft 255 kts 159°
2026-05-05 20:48 51.52136 -0.76237 2491 ft 243 kts 143°
2026-05-05 20:48 51.50809 -0.74673 2484 ft 230 kts 141°
2026-05-05 20:48 51.49568 -0.73173 2481 ft 217 kts 141°
2026-05-05 20:49 51.48394 -0.71706 2498 ft 212 kts 136°
2026-05-05 20:49 51.47665 -0.69755 2502 ft 198 kts 104°
2026-05-05 20:49 51.47601 -0.67691 2471 ft 176 kts 82°
2026-05-05 20:49 51.47712 -0.65823 2270 ft 162 kts 85°
2026-05-05 20:50 51.47703 -0.64088 2055 ft 147 kts 91°
2026-05-05 20:50 51.47690 -0.62531 1848 ft 134 kts 88°
2026-05-05 20:50 51.47703 -0.61087 1680 ft 128 kts 88°
2026-05-05 20:50 51.47707 -0.59657 1504 ft 129 kts 89°
2026-05-05 20:51 51.47713 -0.58223 1336 ft 129 kts 89°
2026-05-05 20:51 51.47718 -0.56789 1151 ft 129 kts 89°
2026-05-05 20:51 51.47723 -0.55350 974 ft 129 kts 89°
2026-05-05 20:51 51.47729 -0.53925 798 ft 128 kts 88°
2026-05-05 20:52 51.47738 -0.52497 620 ft 128 kts 87°
2026-05-05 20:52 51.47744 -0.51076 458 ft 128 kts 87°
2026-05-05 20:52 51.47745 -0.49668 259 ft 126 kts 87°
2026-05-05 20:52 51.47747 -0.48248 125 ft 127 kts 86°
2026-05-05 20:53 51.47753 -0.46953 92 ft 96 kts 88°
2026-05-05 20:53 51.47760 -0.46169 93 ft 47 kts 89°
2026-05-05 20:53 51.47762 -0.45653 89 ft 30 kts 90°
2026-05-05 20:53 51.47756 -0.45562 93 ft 14 kts 108°
2026-05-05 20:54 51.47674 -0.45468 92 ft 14 kts 173°
2026-05-05 20:54 51.47581 -0.45466 90 ft 14 kts 179°
2026-05-05 20:54 51.47514 -0.45538 94 ft 13 kts 251°